NOAA 17 DEB, 48166

Orbit data source: Space-Track

NOAA 17 DEB, 48166 is space debris in SSO originally from a launch on Mon, 24 Jun 2002 UTC launched from the Air Force Western Test Range (AFWTR). Debris objects in space refer to the collection of defunct objects orbiting the Earth. Examples of debris include non-operational satellites, rocket bodies, and fragments generated from explosions, collisions, or faulty payload assembly.

Loading next visibility...
Identifier
48166, 2002-032G
Orbit
SSO
Country
Flag of USUS
Related business
Manufacturer
Unknown
Mission
Spacecraft
Bus & Motor
Unknown
Mass
Unknown
Launch date (UTC)
2002-06-24 (24 years ago)
Launch vehicle
Unknown
Launch site
Air Force Western Test Range (AFWTR)
Object type
Payload
Rocket body
Debris
Shape & HBR
Unknown shape, 0.1 m
Radar Cross Section
Medium (>0.1 m² and <1 m²)

Expand to show TLE details & history
Last TLE update: 2 days ago

TLE from 2 days ago
0 NOAA 17 DEB
1 48166U 02032G   26171.45085829  .00009462  00000-0  16877-2 0  9992
2 48166  98.7867 186.2204 0012611 142.9867 217.2208 14.67179403277058
Epoch: 2026-06-20T10:49Z
TLE epoch observation values (Epoch: 2026-06-20T10:49:14.156Z)
Latitude
0.00004°
Longitude
115.24611°
Altitude
680.147 km
Speed
7.513 km/s
True Right ascension
12h 24m 52s
True Declination
0° 00' 00"
Sunlit
Object was in daylight at epoch
Visualization orbit readout
Latitude
Unknown
Longitude
Unknown
Altitude
Unknown
Speed
Unknown
Apparent Right ascension
Unknown
Apparent Declination
Unknown
Sunlit
N/A
Visualization observer readout
Local Sidereal Time
23:18:56
Azimuth
Unknown
Elevation
Unknown
Doppler factor
Unknown
Orbital elements
Apogee altitude
676.071 km
Perigee altitude
658.302 km
Semi-major axis
7,045.324 km
Eccentricity
0.00126
Inclination
98.7867°
RAAN
186.2204°
Arg. of periapsis
142.9867°
True anomaly
217.1335°
Mean anomaly
217.2208°
Eccentric anomaly
217.17714°
Mean motion
3.67022 °/min
Orbital period
98.09 mins
BSTAR
0.0016877
Loading maneuver chart data...
Computing Atmospheric mass density...

Documentation

Showing up to 5 results
|